{"data":{"norad_id":69527,"epoch":"2026-09-19T11:57:24.244992Z","epoch_age_seconds":112052,"freshness":"FRESH","line1":"1 69527U 26133V   26262.49819728  .00026673  00000+0  79786-3 0  9993","line2":"2 69527  53.1563 234.1397 0001336  94.1291 265.9864 15.34395947 15356","mean_motion":15.34395947,"eccentricity":0.0001336,"inclination_deg":53.1563,"raan_deg":234.1397,"arg_perigee_deg":94.1291,"mean_anomaly_deg":265.9864,"bstar":0.00079786,"rev_number":1535,"period_min":93.84800597365,"perigee_km":461.80134873826,"apogee_km":463.62922446924,"semimajor_km":6840.8522866038,"source":"CELESTRAK","updated_at":"2026-09-20T09:00:44.239248Z"}}